Terminal Aerodrome Forecast
Issued by NWS Duluth, MN

Home | Current Version | Previous Version | Text Only | Print | Product List | Glossary On
Versions: 1 2 3 4 5 6 7 8 9 10 11 12 13 14 15 16 17 18 19 20 21 22 23 24 25 26 27 28 29 30 31 32
000
FTUS43 KDLH 202300
TAFINL
TAF
KINL 202338Z 2100/2124 36005KT P6SM VCSH BKN035
     FM210500 32005KT P6SM VCSH BKN035
     FM210800 32005KT 5SM BR OVC008
     FM211500 33007KT P6SM BKN015
     FM211700 33007KT P6SM SCT020=

USA.gov is the U.S. government's official web portal to all federal, state and local government web resources and services.